Lid_Strength_Index
3 1 -1 -1 -1 -1 -1 -1 -1 -1 -1 -1 -1 -1 -1 -1 -1 -1 -1 -1 -1 -1 -1 -1 -1 -1 -1 -1 -1 -1 -1 -1 -1 -2 -1 -1 -2 -1 -1 -1 -1 -1 -1
2 0 -1 -1 -1 -1 -1 -1 -1 -1 -1 -1 -1 -1 -1 -1 -1 -1 -1 -1 -1 -1 -1 -1 -2 -2 -2 -2 -1 -1 -1 -1 -1 -1 -1 -1 -1 -1 -1 -1 -1 -1 -1
2 -0 -0 -1 -1 -1 -1 -1 -1 -1 -1 -1 -1 -1 -1 -1 -1 -1 -1 -1 -1 -1 -1 -1 -2 -2 -2 -2 -1 -1 -1 -1 -1 -1 -0 -0 -0 -1 -1 -1 -1 -2 -1
-0 -0 -0 -1 -1 -1 -1 -2 -1 -1 -1 -1 -1 -1 -1 -1 -1 -1 -1 -2 -1 -1 -1 -1 -2 -2 -2 -2 -2 -1 -1 -1 -1 -0 -0 -0 -0 -1 -1 -1 -1 -1 -1
4 1 -0 -2 -1 -1 -2 -1 -2 -2 -2 -1 -1 -1 -1 -1 -1 -1 -1 -2 -2 -1 -1 -2 -2 -2 -2 -2 -2 -1 -1 -1 -1 -0 0 -0 0 -1 -1 -1 -1 -1 -1
5 4 1 -2 -2 -2 -2 -2 -2 -1 -1 -2 -1 -1 -1 -1 -1 -1 -1 -1 -1 -1 -2 -2 -1 -2 -2 -2 -1 -1 -1 -1 -1 -0 0 -0 -0 -1 -1 -1 -1 -1 -1
7 5 4 0 -1 -1 -2 -2 -2 -2 -2 -2 -1 -1 -2 -2 -2 -2 -1 -1 -1 -1 -1 -1 -2 -1 -1 -1 -2 -1 -1 -0 -0 -0 0 -0 -0 -1 -1 -1 -1 -1 -1
8 7 6 4 1 1 -0 -0 -1 -2 -2 -2 -2 -2 -2 -2 -2 -2 -1 -1 -1 -1 -1 -2 -1 -1 -1 -1 -1 -1 -0 1 0 -0 0 0 -0 -1 -1 -1 -1 -1 -1
9 9 8 8 6 3 2 1 1 1 -0 -2 -2 -2 -2 -1 -1 -1 -1 -1 -2 -2 -2 -1 -1 -1 -1 -1 -1 -0 1 1 0 -0 -0 0 0 -1 -1 -1 -1 -1 -1
10 10 10 9 8 7 7 3 2 3 2 0 -1 -1 -1 -1 -1 -0 -0 -1 -1 -2 -1 -1 -1 -1 -1 -1 -1 0 1 1 0 0 0 0 0 -2 -2 -1 -1 -1 -2
10 11 11 10 10 9 8 7 5 4 4 2 1 -0 -1 -0 -0 -0 0 -0 -1 -1 -1 -1 -1 -1 -1 -0 0 1 2 0 0 1 0 0 -1 -2 -2 -1 -1 -1 -1
13 11 11 11 11 10 8 8 8 7 7 5 3 3 0 -1 -0 -0 1 0 -1 -0 -1 -1 -1 -0 0 0 0 1 0 1 1 1 1 0 -1 -2 -2 -1 -1 -1 -1
14 12 12 12 11 11 10 10 10 9 9 6 5 4 3 3 0 -1 -0 -0 -0 1 0 -0 -0 0 0 0 0 -0 -0 2 1 1 1 0 -1 -2 -2 -1 -1 -1 -1
14 13 13 12 12 12 12 12 12 11 10 8 6 5 5 3 5 4 3 2 -0 0 1 0 0 1 1 0 0 0 0 2 2 1 1 2 -0 -1 -2 -1 -1 -1 -1
15 14 14 13 13 12 13 13 12 12 12 10 8 7 5 5 6 5 5 5 3 2 -0 0 1 1 1 0 0 1 1 2 2 1 1 3 1 -1 -1 -1 -2 -2 -2
15 15 14 14 13 13 13 13 12 12 11 11 11 9 7 6 7 6 6 6 3 3 3 2 0 1 1 0 1 1 2 2 2 2 1 1 2 0 -1 -1 -1 -2 -2
16 15 15 14 14 14 14 13 12 12 11 11 11 10 8 8 8 6 7 6 4 4 6 6 3 0 1 1 1 1 1 2 2 2 1 1 1 2 1 -1 -1 -1 -2
16 16 15 13 14 13 14 13 12 12 12 11 11 10 10 9 8 7 7 6 6 6 6 6 7 2 1 1 1 1 1 1 1 2 1 1 1 1 2 0 -0 -1 -1
17 16 16 15 14 14 13 13 13 13 12 11 11 11 10 10 9 7 8 7 7 7 7 6 6 8 2 2 2 2 2 1 1 2 1 1 1 0 -0 2 2 1 -0
17 16 16 15 14 14 13 13 13 13 12 12 12 11 11 10 9 8 8 7 7 6 7 6 6 6 8 3 2 2 1 1 1 1 1 1 1 0 0 0 1 3 1
17 16 16 15 15 14 14 14 15 15 14 13 13 12 12 11 9 9 8 7 6 7 7 6 6 7 7 8 8 3 2 2 3 2 2 1 1 1 1 1 1 1 1
17 17 16 15 15 15 14 14 15 15 14 14 13 13 12 12 11 11 10 9 7 6 6 6 6 6 6 7 10 4 6 4 3 2 2 3 3 2 3 2 1 2 1
17 17 16 15 15 15 15 14 15 15 15 15 14 14 13 12 12 12 11 11 8 6 5 6 6 6 8 7 8 10 6 7 5 3 2 3 3 2 3 2 1 2 2
17 17 16 15 15 15 15 16 16 17 17 16 15 14 14 13 13 12 11 8 6 5 4 5 4 6 6 8 9 7 10 4 6 8 4 2 3 3 2 3 2 2 2
16 17 16 16 16 16 16 16 16 17 16 15 15 15 15 14 13 13 10 9 8 7 4 4 5 4 6 8 9 8 9 9 3 5 7 6 4 2 3 2 2 3 2
17 17 17 17 16 16 16 16 17 17 17 17 16 16 16 16 14 13 12 12 10 8 7 4 4 4 5 8 8 9 10 9 5 5 5 6 5 3 3 3 3 3 3